AO-07 1 07530U 74089B 15035.92343174 -.00000019 00000-0 15202-3 0 9994 2 07530 101.5054 015.3486 0011829 199.4112 217.5167 12.53611490840685 FO-29 1 24278U 96046B 15036.23695185 .00000044 00000-0 78346-4 0 9992 2 24278 098.5257 022.9764 0351170 053.1218 037.5598 13.53042317912185 SO-33 1 25509U 98061B 15035.86865185 .00000787 00000-0 14341-3 0 9994 2 25509 031.4307 281.7227 0348334 353.3366 083.8985 14.29823489850479 RS-22 1 27939U 03042A 15036.88750160 .00001859 00000-0 34878-3 0 9995 2 27939 097.8247 204.7545 0014105 084.9524 275.3289 14.65769148606952 HO-68 1 36122U 09072B 15036.67720801 -.00000060 00000-0 -43517-4 0 9990 2 36122 100.2151 086.0717 0007732 062.6725 297.5173 13.16323493247150 AO-73 1 39444U 13066AE 15036.18421512 .00004819 00000-0 63080-3 0 9991 2 39444 097.7470 103.7320 0060267 204.6283 155.2049 14.79568524 63895 EO-79 1 40025U 14033R 15036.71704944 .00003605 00000-0 41351-3 0 9994 2 40025 097.9649 296.7556 0011712 255.9709 104.0205 14.86482510 34262 UO-11 1 14781U 84021B 15036.12957909 .00001124 00000-0 14759-3 0 9990 2 14781 097.8196 096.3606 0009877 137.4220 222.7761 14.82136972662467 AO-16 1 20439U 90005D 15035.85095668 .00000206 00000-0 91922-4 0 9998 2 20439 098.5307 334.0711 0010898 185.6920 243.2008 14.32483639307796 LO-19 1 20442U 90005G 15035.86114033 .00000203 00000-0 90407-4 0 9995 2 20442 098.5017 334.0366 0012107 174.5508 185.5810 14.32679629307995 AO-27 1 22825U 93061C 15036.45406824 .00000187 00000-0 90238-4 0 9998 2 22825 098.6937 346.6475 0007804 341.6719 157.2407 14.29829619114113 IO-26 1 22826U 93061D 15036.44265409 .00000221 00000-0 10276-3 0 9992 2 22826 098.6879 346.8209 0008210 332.6864 027.3886 14.30141240114251 GO-32 1 25397U 98043D 15036.47088767 .00000098 00000-0 61883-4 0 9999 2 25397 098.5040 351.1627 0001414 043.8375 094.1118 14.23513778861054 NO-44 1 26931U 01043C 15036.54923059 .00000234 00000-0 12196-3 0 9992 2 26931 067.0523 156.6354 0006847 267.8827 092.1490 14.30251772696975 SO-50 1 27607U 02058C 15035.79103135 .00000738 00000-0 12731-3 0 9995 2 27607 064.5545 242.9617 0073429 314.9864 044.5301 14.74421714651761 CO-55 1 27844U 03031E 15036.32264481 .00000377 00000-0 19136-3 0 9997 2 27844 098.6978 046.7296 0008861 326.4401 148.9876 14.21703770601700 CO-57 1 27848U 03031J 15036.59255455 .00000298 00000-0 15653-3 0 9993 2 27848 098.7074 046.8335 0008844 333.3930 146.2620 14.21364623601654 AO-51 1 28375U 04025K 15036.43814045 .00000453 00000-0 14694-3 0 9999 2 28375 098.2801 340.7686 0082813 008.4631 351.7933 14.41573469557500 CP3 1 31129U 07012N 15036.16645723 .00003126 00000-0 68501-3 0 9990 2 31129 097.9653 007.8110 0097322 006.0484 121.3352 14.55426351413910 CO-65 1 32785U 08021C 15036.18490866 .00003438 00000-0 39546-3 0 9991 2 32785 097.6670 084.5292 0014715 138.5736 257.4711 14.86324583366627 PRISM 1 33493U 09002B 15036.77297733 .00007081 00000-0 70346-3 0 9992 2 33493 098.2523 227.8500 0017402 042.5884 317.6691 14.91935953326971 SOHLA-1 1 33496U 09002E 15035.97829245 .00000711 00000-0 12366-3 0 9996 2 33496 098.1931 162.9100 0005882 212.7225 284.3130 14.71176799323732 TISAT-1 1 36799U 10035E 15036.28278721 .00006693 00000-0 74337-3 0 9996 2 36799 098.0140 135.2618 0011994 279.7181 147.7041 14.87488829247346 STUDSAT 1 36801U 10035G 15036.18724016 .00034146 00000-0 23632-2 0 9997 2 36801 098.0532 149.0664 0006269 225.0976 200.0953 15.05577666248068 ALMASAT-1 1 38078U 12006B 15036.87157095 .00043280 00000-0 81675-3 0 9999 2 38078 069.4542 208.9292 0519943 077.9945 287.8807 14.67605364155690 XATCOBEO 1 38082U 12006F 14243.34478676 .13583328 43697-5 37939-3 0 9990 2 38082 069.3815 097.0364 0033293 225.1799 135.4582 16.41261006136239 CUBEBUG-1 1 39153U 13018D 15036.63223606 .00002477 00000-0 34410-3 0 9992 2 39153 098.0242 121.3869 0016520 321.0380 038.9639 14.78710009 96032 ESTCUBE-1 1 39161U 13021C 15036.78199926 .00001918 00000-0 32220-3 0 9994 2 39161 098.0810 120.8567 0010202 020.1700 339.9923 14.70766936 93922 DUCHIFAT-1 1 40021U 14033M 15036.67343810 .00004844 00000-0 54559-3 0 9996 2 40021 097.9674 296.8630 0012706 257.1430 102.8383 14.87051233 34256 NANOSATCBR1 1 40024U 14033Q 15036.69911686 .00004521 00000-0 51338-3 0 9997 2 40024 097.9643 296.7795 0011448 256.0846 103.9133 14.86762850 34255 DTUSAT-2 1 40030U 14033W 15036.70834467 .00003650 00000-0 42258-3 0 9990 2 40030 097.9623 296.5843 0011092 247.1731 112.8314 14.86089990 34258 ANTELSAT 1 40034U 14033AA 15036.75597894 .00002524 00000-0 39707-3 0 9993 2 40034 097.9581 291.6157 0060214 179.8610 180.2641 14.72196888 33954 MET-2/21 1 22782U 93055A 15036.49499627 .00000115 00000-0 90733-4 0 9991 2 22782 082.5524 348.1708 0021498 333.6891 164.1116 13.83760147 82388 OKEAN-4 1 23317U 94066A 15036.23744537 .00002349 00000-0 26329-3 0 9994 2 23317 082.5371 209.3207 0021162 050.0394 081.3554 14.86280501 97715 NOAA-14 1 23455U 94089A 15036.52457360 .00000084 00000-0 66998-4 0 9990 2 23455 098.7600 120.6461 0010537 096.8053 018.9399 14.14020351 36928 NOAA-15 1 25338U 98030A 15036.57951824 .00000189 00000-0 98598-4 0 9998 2 25338 098.7683 035.1698 0010736 184.9338 283.4389 14.25560175870096 RESURS 1 25394U 98043A 15035.87227818 .00000081 00000-0 53095-4 0 9999 2 25394 098.4487 355.8531 0000505 357.6190 055.2703 14.24438922861440 FENGYUN1 1 25730U 99025A 15036.50091789 .00002000 00000-0 10950-2 0 9995 2 25730 098.9338 001.5234 0018815 164.1541 333.7661 14.12966140810450 OKEAN-0 1 25860U 99039A 15035.91519959 .00001004 00000-0 15403-3 0 9994 2 25860 098.0779 003.9025 0001648 085.9431 334.3313 14.75786217836477 NOAA-16 1 26536U 00055A 15036.46575858 -.00000050 00000-0 -24272-5 0 9994 2 26536 098.9587 102.4735 0009852 241.1707 118.8476 14.13075039741053 NOAA-17 1 27453U 02032A 15036.55314165 .00000087 00000-0 54838-4 0 9990 2 27453 098.3305 029.1444 0011467 203.7407 156.3246 14.24849750655914 NOAA-18 1 28654U 05018A 15036.52070861 .00000197 00000-0 13296-3 0 9994 2 28654 099.1752 026.0230 0013698 332.9715 179.3567 14.12144772500499 NOAA-19 1 33591U 09005A 15036.52439971 .00000116 00000-0 87829-4 0 9996 2 33591 098.9753 346.2032 0014182 177.3114 314.8851 14.11868731308915 HUBBLE 1 20580U 90037B 15036.37193287 .00004060 00000-0 25467-3 0 9996 2 20580 028.4706 302.9445 0002789 264.3847 037.1229 15.06755216159907 ISS 1 25544U 98067A 15036.75479648 .00017495 00000-0 26839-3 0 9992 2 25544 051.6473 020.3663 0005703 331.6319 087.1479 15.54376832927580 CO-58 1 28895U 05043F 15036.09255307 .00001075 00000-0 22054-3 0 9999 2 28895 097.8223 230.7721 0016865 359.1172 000.9998 14.62473891494288 FALCON 1 30776U 07006E 15036.21122088 .00017171 00000-0 75183-3 0 9999 2 30776 035.4282 106.6040 0003560 196.1900 194.3963 15.21220757436163 MAST 1 31126U 07012K 15036.66271525 .00001827 00000-0 40466-3 0 9993 2 31126 097.9450 010.8136 0090935 347.0189 060.6857 14.55791757414356 CAPE1 1 31130U 07012P 15036.31368541 .00002857 00000-0 63045-3 0 9997 2 31130 097.9668 007.4603 0097988 007.2824 352.9771 14.55129685413704 COMPASS 1 32787U 08021E 15036.20350482 .00006310 00000-0 66293-3 0 9996 2 32787 097.6694 087.8886 0014712 128.2580 231.9964 14.89720878366852 AAUSAT2 1 32788U 08021F 15036.08367554 .00007147 00000-0 73317-3 0 9995 2 32788 097.6707 089.0720 0014220 126.0430 234.2108 14.90644324366919 DO-64 1 32789U 08021G 15036.12860309 .00014098 00000-0 12121-2 0 9995 2 32789 097.6912 098.1702 0012927 108.1624 309.8706 14.97454558367309 CO-66 1 32791U 08021J 15036.39415139 .00004670 00000-0 51343-3 0 9999 2 32791 097.6689 086.2955 0015360 132.5286 227.7231 14.87999989366716 RS-30 1 32953U 08025A 15036.80221594 .00000010 00000-0 -13620-7 0 9994 2 32953 082.5019 055.9490 0018687 010.4150 349.7315 12.43056073304282 METEOR-M 1 35865U 09049A 15036.77057810 .00000164 00000-0 93236-4 0 9997 2 35865 098.5188 081.7090 0002820 125.8394 234.3042 14.21987018279532 RS-38 1 35869U 09049E 15036.68829414 .00000091 00000-0 59800-4 0 9996 2 35869 098.5120 081.3249 0005081 128.4020 231.7602 14.22268497279561 JUGNU 1 37839U 11058B 15035.13246485 .00000455 00000-0 10118-3 0 9990 2 37839 019.9609 289.0851 0019053 020.0586 113.4848 14.12415554171389 SRMSAT 1 37841U 11058D 15035.17384642 .00000411 00000-0 81570-4 0 9998 2 37841 019.9723 312.8313 0011817 312.0221 199.4061 14.10437369171159 RAX-2 1 37853U 11061D 15036.43873428 .00013883 00000-0 87426-3 0 9992 2 37853 101.7074 183.0052 0202792 100.1306 309.4012 14.93902711177427 AUBIESAT 1 37854U 11061E 15036.38957741 .00014292 00000-0 86441-3 0 9999 2 37854 101.7129 185.7346 0198868 095.8668 322.1577 14.95779694177504 HRBE 1 37855U 11061F 15036.62812020 .00014628 00000-0 89887-3 0 9997 2 37855 101.7127 185.0273 0202275 097.4093 265.0147 14.94774656177480 RS-39 1 38051U 11062C 14288.65876392 .70201582 12497-4 27925-2 0 9995 2 38051 051.5964 324.1908 0006422 269.6897 186.8903 16.43533377153081 E-STAR 1 38079U 12006C 15016.13455217 .17990388 48979-5 52837-3 0 9992 2 38079 069.3967 125.0648 0013168 047.0341 316.5109 16.44007688156194 GOLIAT 1 38085U 12006J 15036.75987358 .00929943 37365-3 17184-2 0 9996 2 38085 069.4131 081.5243 0101479 008.1221 105.7549 15.91994774159023 HORYU-2 1 38340U 12025D 15036.15348638 .00004021 00000-0 62356-3 0 9993 2 38340 098.2976 002.8648 0012735 150.6459 209.5466 14.73680768146088 RS-40 1 38735U 12041C 15036.70682370 .00000040 00000-0 21992-3 0 9992 2 38735 082.4784 141.9620 0017722 108.2772 252.0236 12.42567362114587 PROITERES 1 38756U 12047B 15036.79180989 .00001403 00000-0 21367-3 0 9999 2 38756 098.2198 133.9124 0012359 003.6766 356.4544 14.75526418129623 BEESAT-3 1 39134U 13015E 15035.64777359 .00013149 00000-0 81314-3 0 9990 2 39134 064.8743 120.7970 0035141 270.9693 088.7403 15.09586138 98676 BEESAT-2 1 39136U 13015G 15036.50497511 .00011682 00000-0 74756-3 0 9999 2 39136 064.8746 119.5214 0035653 270.6067 089.0969 15.08393945 98782 LO-75 1 39382U 13064C 14295.69194059 .07301741 00000-0 36367-2 0 9993 2 39382 040.4713 030.2705 0002289 341.7175 018.4586 16.19795749470823 ZACUBE-1 1 39417U 13066B 15036.24525211 .00003572 00000-0 47377-3 0 9995 2 39417 097.7465 103.6504 0060800 204.9485 154.8785 14.79157177 65120 TRITON-1 1 39427U 13066M 15036.65675291 .00002375 00000-0 39885-3 0 9990 2 39427 097.7332 095.0573 0115890 226.3340 132.8214 14.66214995 64582 DELFIN3XT 1 39428U 13066N 15035.85328261 .00004582 00000-0 77680-3 0 9991 2 39428 097.7332 092.8757 0125054 232.9855 125.9855 14.64646765 64361 GOMX-1 1 39430U 13066Q 15036.70729606 .00002203 00000-0 42055-3 0 9993 2 39430 097.7273 089.2203 0153540 243.6949 114.8409 14.57628807 64224 MO-76 1 39436U 13066W 15036.14193550 .00036683 00000-0 29590-2 0 9997 2 39436 097.7528 112.1454 0023059 191.1747 168.8967 14.99557767 65659 LO-74 1 39440U 13066AA 15036.46656952 .00003041 00000-0 44552-3 0 9995 2 39440 097.7417 100.3038 0082387 212.4406 147.1724 14.74018037 64921 PUCPSAT-1 1 39442U 13066AC 15036.09966923 .00004711 00000-0 51758-3 0 9999 2 39442 097.7538 109.1343 0033500 196.9747 163.0352 14.87707889 64221 SHINAISAT 1 39572U 14009A 14328.13084988 .28848087 76253-5 66603-3 0 9996 2 39572 064.9728 197.0096 0013534 259.7861 100.1802 16.45181032 42403 TEIKYOSAT 1 39576U 14009E 14297.85867254 .09345816 76764-5 25176-3 0 9997 2 39576 064.9818 300.5833 0008491 317.3597 044.3862 16.45008906 37698 CO-77 1 39577U 14009F 14244.78324653 .10543803 76292-5 32273-3 0 9993 2 39577 064.9920 123.7668 0014904 269.7208 091.1897 16.43552757 29380 SPROUT 1 39770U 14029E 15036.05984031 .00002361 00000-0 29416-3 0 9994 2 39770 097.8705 134.7537 0008798 273.5528 086.4639 14.83387009 38042 POPSAT-HIP1 1 40028U 14033U 15036.74228823 .00003440 00000-0 39627-3 0 9997 2 40028 097.9682 296.8280 0013295 252.6238 107.3577 14.86320783 34256 EO-80 1 40032U 14033Y 15036.77983465 .00003695 00000-0 42803-3 0 9997 2 40032 097.9629 296.6662 0011367 247.3839 112.6191 14.86058740 34263 VELOX-1 1 40057U 14034E 15036.77914259 .00003289 00000-0 49474-3 0 9990 2 40057 098.2282 112.7253 0010557 301.1211 058.8990 14.75142368 32507 DAURIA DX 1 1 40071U 14037C 15036.78638442 .00001560 00000-0 21344-3 0 9993 2 40071 098.3743 102.7263 0007739 307.0594 052.9910 14.80062662 31356 UKUBE-1 1 40074U 14037F 15036.76489159 .00003386 00000-0 43907-3 0 9990 2 40074 098.3755 103.1086 0004131 321.1897 038.9027 14.81501506 31377 CHASQUI-1 1 40117U 98067ET 15014.73322295 .07508583 12315-4 10026-2 0 9990 2 40117 051.6189 112.4445 0004239 337.2783 022.7551 16.34635278 23368 HODOYOSHI-1 1 40299U 14070B 15036.78150400 .00006088 00000-0 30197-3 0 9991 2 40299 097.4663 120.0046 0012268 228.1335 284.8575 15.18025058 13870 CHUBUSAT-1 1 40300U 14070C 15036.77439372 .00008256 00000-0 42980-3 0 9993 2 40300 097.4636 119.6855 0021922 229.2497 284.5548 15.16067118 13859 QSAT-EOS 1 40301U 14070D 15036.77966172 .00014606 00000-0 79134-3 0 9994 2 40301 097.4604 119.3423 0033401 229.7383 285.0522 15.14219563 13834 TSUBAME 1 40302U 14070E 15036.83684773 .00008324 00000-0 48610-3 0 9991 2 40302 097.4577 119.0202 0043404 230.7969 128.9399 15.11359634 13818 FIREBIRD FU3 1 40377U 15003B 15036.89609323 .00021933 00000-0 11592-2 0 9993 2 40377 099.1258 046.3354 0165653 322.8163 036.1672 15.04380824 799 FIREBIRD FU4 1 40378U 15003C 15036.56343620 .00020951 00000-0 10999-2 0 9992 2 40378 099.1273 045.9465 0167437 323.3883 035.5986 15.04393335 749 GRIFEX 1 40379U 15003D 15036.56375469 .00017449 00000-0 92375-3 0 9996 2 40379 099.1276 045.9463 0166485 324.7733 034.2533 15.04280526 743 /EX